Back to catalog

CZ-6A DEB

AlivePO
NORAD 54496·DEBRIS·🇨🇳 China

Launched Nov 11, 2022 from Taiyuan Satellite Launch Center

Loading…

Next Passes (next 24 hours)

TLE

FreshSource: Space-Track

Epoch: Sep 14, 2026, 06:32 UTC

1 54496U 22151HY  26257.27268947  .00004007  00000-0  11004-2 0  9995
2 54496  99.1237   7.7980 0114878 207.5968 151.9092 14.43819780200484

Track CZ-6A DEB in real time with AllMySat

Download on the App Store